RH
49 49 50 52 54 59 61 63 72 75 75 78 79 80 77 74 73 72 74 73 72 70 70 72 72 72 73 73 71 69 68 68 68 68 67 61 56 51 48 46 45 46 47 45 41 37 34 32 33 35 36 38 38 39 37 29 26 26 24 17 22 33 31 24 23 29 32 31 32 32 32 30 29 30 30 31 30 30 30 29 28 29 29 29 29 30 30 29 29 28 29 29 29 28 28 29 29
48 49 50 51 54 58 61 62 71 74 74 76 76 78 76 73 71 72 73 73 71 68 67 68 69 68 66 66 64 64 63 60 60 61 57 53 51 46 43 42 41 40 40 38 36 32 29 29 30 33 34 35 36 37 37 34 32 31 27 18 24 34 31 30 29 31 32 31 32 32 32 30 29 30 31 30 30 30 30 29 27 29 29 29 29 29 29 29 30 29 29 29 28 28 28 29 29
48 49 50 52 55 57 59 60 67 70 70 71 70 71 69 69 69 68 69 69 68 64 65 64 64 62 60 63 62 61 60 54 52 51 48 45 45 42 40 41 39 37 35 33 32 29 27 27 28 31 32 34 36 37 37 36 34 35 32 22 28 35 31 33 32 32 32 31 32 32 31 30 29 30 32 30 30 31 29 30 28 29 29 28 29 29 29 28 30 29 29 29 27 28 28 29 29
47 49 52 53 55 57 59 61 66 67 67 68 66 65 63 65 64 66 66 64 65 61 61 60 59 58 58 61 58 57 54 49 45 41 40 40 40 38 36 37 36 34 32 31 30 28 25 27 29 31 32 34 35 36 36 36 35 36 36 28 30 36 34 34 32 32 32 30 31 31 31 31 30 30 32 30 30 30 29 31 29 29 29 28 29 29 29 28 30 29 29 29 27 28 28 29 29
47 50 54 54 55 57 59 62 64 64 63 65 65 63 61 65 65 65 62 57 57 54 53 54 54 54 55 55 50 48 44 39 34 31 31 31 33 34 33 33 31 31 31 30 29 28 27 28 32 33 33 34 35 36 36 36 36 35 36 33 32 36 36 35 33 32 31 31 32 32 31 31 31 31 32 30 31 29 29 31 29 28 29 29 29 28 29 30 31 30 30 29 27 30 28 29 30
47 52 55 54 55 55 58 62 63 62 60 62 64 62 59 60 59 59 56 51 50 47 47 48 48 48 48 44 37 33 29 27 26 25 25 25 26 27 27 27 28 29 29 29 29 29 28 29 33 35 35 34 34 35 36 36 37 36 37 36 36 38 38 36 34 33 31 31 32 32 32 31 31 31 31 31 30 30 31 33 30 29 29 30 30 30 30 31 32 30 30 29 27 31 30 29 30
43 50 54 55 55 54 59 62 61 62 58 57 58 56 54 52 50 51 52 51 48 44 43 42 40 39 38 34 29 24 21 22 22 22 22 23 25 24 23 23 26 27 29 31 32 32 30 31 34 37 38 39 38 36 37 36 36 37 37 38 38 38 38 35 34 34 33 32 34 34 33 31 32 31 31 32 31 31 32 33 31 29 30 29 30 32 35 36 36 32 30 28 26 30 31 30 30
36 43 48 53 56 56 60 59 60 61 51 46 47 45 46 46 43 44 44 43 41 39 38 37 34 34 33 29 26 22 20 20 21 21 22 23 24 24 23 23 25 28 32 34 35 34 32 33 33 37 41 43 42 40 40 38 35 36 36 37 38 38 38 35 34 36 35 33 34 36 35 31 32 31 31 32 32 31 32 32 30 30 30 30 30 33 37 41 42 35 31 28 27 31 32 31 30
31 36 41 47 52 54 54 53 55 55 43 39 39 37 39 41 40 40 39 36 34 34 34 34 32 33 31 26 24 22 22 22 23 23 23 24 25 25 24 23 26 30 33 34 35 35 35 34 36 45 48 45 44 43 44 41 36 34 36 36 37 38 38 38 37 38 37 35 34 34 37 35 33 32 32 33 32 32 32 32 29 30 31 29 29 31 35 39 41 36 32 28 27 31 32 31 31
30 34 38 41 44 44 43 44 45 43 37 36 35 34 35 36 37 38 38 36 34 34 33 33 31 32 29 25 23 22 24 24 23 24 24 26 26 26 26 26 27 30 32 33 35 34 35 35 39 49 50 46 47 47 47 47 41 35 36 35 36 38 37 39 38 37 37 37 37 37 39 38 37 34 33 33 33 32 32 31 30 30 31 30 30 31 31 33 37 37 32 29 28 31 32 32 31
33 35 36 37 38 36 36 38 38 35 33 34 32 31 31 30 31 34 36 36 36 35 32 31 30 28 26 24 24 23 24 23 23 24 25 27 27 27 27 28 27 28 31 33 34 33 35 36 36 38 37 37 39 41 44 50 47 38 37 37 36 37 36 39 39 39 38 38 41 43 40 36 37 38 36 34 33 33 32 31 31 31 32 32 32 32 31 31 34 36 33 30 29 30 32 32 32
31 35 35 35 37 35 35 36 33 30 31 30 28 27 27 27 29 32 35 33 33 32 31 30 28 24 23 24 22 21 21 21 22 24 25 25 26 28 28 28 26 26 29 32 34 33 34 35 35 33 31 29 30 33 38 46 47 38 37 39 38 38 36 37 39 40 40 38 39 43 42 37 37 38 38 36 34 34 33 33 32 31 32 32 33 33 32 31 33 36 35 32 30 30 32 32 33
26 33 34 34 37 35 34 35 31 29 28 27 25 27 28 28 29 30 31 31 31 31 29 26 22 19 20 21 19 18 19 20 22 22 23 24 25 26 26 27 26 25 27 30 31 33 34 34 35 35 33 31 32 34 35 41 45 38 36 37 37 39 39 37 38 39 39 39 39 40 42 41 40 38 37 37 36 35 35 34 33 32 32 32 33 33 33 33 33 35 34 33 32 30 32 32 34
25 29 31 31 33 32 30 31 30 28 26 25 25 26 27 28 29 28 29 30 29 25 22 18 15 15 17 19 17 17 18 20 21 20 21 22 23 23 24 25 26 25 25 28 29 30 32 33 34 36 36 36 37 37 37 40 42 39 36 35 34 35 38 37 37 38 38 38 41 43 40 41 41 38 37 37 37 36 36 36 34 34 33 32 32 33 34 34 33 34 34 35 34 31 32 32 34
22 25 29 30 31 31 29 27 28 27 24 23 23 24 26 26 26 25 25 24 21 17 15 13 12 14 17 17 17 16 17 18 18 19 19 20 21 22 22 24 25 25 25 25 26 27 28 29 31 33 35 37 38 38 39 39 40 39 39 40 39 37 37 38 37 37 38 36 39 43 41 40 41 39 37 38 38 37 37 38 37 35 34 34 33 33 34 35 35 35 35 35 34 32 31 32 33
16 19 28 28 28 29 26 24 26 26 23 22 21 22 24 22 20 19 17 15 14 12 12 12 12 14 15 15 15 15 16 16 17 18 18 20 21 21 22 23 23 24 24 24 23 24 25 27 28 30 31 32 34 36 37 39 40 41 42 45 48 47 45 43 43 40 39 38 36 40 43 42 41 41 40 40 40 39 38 40 41 39 37 36 35 34 34 35 36 35 36 36 34 33 32 33 34
9 14 22 21 22 22 20 21 22 23 21 22 20 20 22 20 16 13 12 11 12 12 12 12 12 14 14 14 15 15 15 16 17 18 18 20 21 21 22 21 21 21 22 22 22 22 22 24 25 27 28 29 31 32 34 36 37 40 42 44 48 52 52 49 49 47 45 44 39 39 43 44 43 43 42 41 42 42 40 41 42 42 41 38 37 37 35 35 36 35 37 37 35 33 32 34 34
8 14 16 16 21 18 17 20 19 20 19 20 19 19 19 17 14 12 12 12 11 12 12 13 14 14 14 15 15 15 16 16 17 17 18 19 19 20 20 19 19 19 19 19 19 20 20 21 22 24 25 26 27 29 31 33 35 37 39 42 46 48 52 53 53 51 50 49 46 42 42 44 46 46 44 44 43 43 42 42 41 43 43 41 40 39 37 36 36 36 37 39 40 36 32 32 34
11 16 14 19 25 17 16 17 16 18 17 18 18 16 14 13 12 12 14 15 13 13 14 14 14 15 15 15 15 15 15 16 16 17 17 17 17 17 17 17 17 18 18 19 19 19 19 19 20 21 22 23 24 26 28 30 33 35 37 40 44 45 48 51 52 54 54 53 51 48 45 42 44 46 46 46 45 45 44 43 43 42 43 42 43 43 41 39 38 38 38 40 43 40 34 32 33
11 14 15 22 24 16 14 15 15 16 15 16 15 12 12 12 13 13 16 17 15 16 15 15 15 16 16 16 17 16 15 16 16 16 16 16 15 15 16 16 16 17 18 19 19 19 19 19 19 20 21 21 23 24 24 26 28 30 33 36 41 44 47 50 51 53 54 54 55 53 49 45 43 44 46 47 47 47 46 46 45 44 44 43 44 45 44 42 41 41 40 40 42 40 36 33 34
12 14 17 19 18 15 15 15 15 14 12 12 12 13 13 13 14 14 15 17 18 17 15 15 16 17 18 19 19 17 16 16 16 16 16 15 15 15 15 16 16 17 17 18 19 19 20 19 19 19 20 21 22 23 23 24 24 25 27 30 33 37 42 47 50 52 53 54 55 54 54 53 50 47 46 47 48 48 48 48 47 46 46 45 45 45 44 44 44 44 43 43 42 41 39 35 35
12 15 15 14 13 15 15 14 14 12 12 13 13 13 13 14 15 15 16 18 19 17 15 17 17 18 19 20 20 18 17 16 17 17 16 16 16 15 15 16 16 17 17 18 19 20 20 20 20 20 19 20 21 22 23 24 24 25 25 26 28 30 33 38 42 46 49 52 54 54 54 56 58 59 56 53 50 49 49 50 49 48 47 47 46 46 45 44 45 46 45 45 45 43 42 38 37
14 15 13 12 14 14 13 11 11 12 15 16 15 14 14 15 15 16 16 18 19 16 16 17 18 20 20 21 20 18 18 18 19 18 18 17 16 17 17 17 17 18 18 19 20 21 21 20 20 20 20 20 20 20 21 23 24 26 26 26 27 28 29 31 34 37 40 44 49 53 55 55 56 61 68 69 63 56 51 50 50 50 49 49 48 48 48 46 45 47 46 46 47 46 45 42 39
15 16 13 13 13 12 12 12 12 15 17 17 16 16 16 16 15 16 17 17 17 16 17 18 19 21 21 21 20 19 19 20 20 20 19 18 18 19 19 19 19 19 20 20 21 21 21 22 21 21 21 21 21 21 21 22 23 25 27 27 28 28 28 29 31 33 34 37 41 46 52 56 57 59 66 73 76 71 63 57 53 51 50 50 51 50 50 49 47 47 48 47 47 48 47 45 43
17 16 15 13 12 13 14 14 16 18 18 17 16 18 18 17 15 16 17 17 16 17 17 18 19 21 22 21 20 20 20 21 22 22 21 20 20 20 21 21 21 21 22 22 23 24 24 23 24 24 24 24 23 23 23 23 23 24 26 27 28 29 29 29 29 30 32 34 36 39 44 50 56 59 62 67 72 74 74 71 65 58 53 52 53 52 51 52 51 49 49 49 48 48 49 48 46
19 17 17 14 12 15 15 16 18 18 18 18 19 21 21 18 17 17 17 17 16 16 17 19 20 21 23 22 21 21 20 22 22 23 23 23 23 24 23 23 23 23 23 24 25 25 26 25 25 25 25 26 26 25 25 24 24 24 25 27 29 29 30 30 29 28 29 30 32 35 39 43 47 53 58 63 66 69 73 76 74 70 65 59 56 54 53 52 52 52 50 50 50 49 49 49 48
17 17 18 17 15 16 15 16 16 17 17 19 22 23 23 19 18 19 18 18 17 17 17 19 21 23 24 24 24 23 22 23 24 25 26 26 27 27 27 27 26 26 25 27 27 27 27 26 26 25 25 25 26 26 26 26 25 24 24 25 27 28 29 29 29 28 27 27 29 31 34 38 42 46 50 56 61 65 68 70 71 73 75 71 65 61 60 56 52 54 53 52 52 51 51 51 50
15 16 19 20 19 16 14 15 15 16 18 20 23 24 23 20 20 20 18 18 19 18 19 21 23 26 27 27 27 26 25 25 27 29 30 30 30 30 30 30 29 28 28 28 28 28 27 27 26 25 25 25 26 26 27 27 26 25 24 24 26 28 29 27 26 25 24 23 25 28 31 33 37 42 45 49 54 59 64 66 66 69 74 76 75 72 70 65 59 58 57 54 54 54 54 53 52
16 16 18 22 24 18 13 14 15 16 19 21 22 23 23 22 21 20 18 20 22 22 23 24 27 28 29 30 30 30 29 29 31 33 33 33 33 33 32 31 31 30 30 29 28 28 27 26 26 25 26 26 27 27 27 27 26 25 23 23 24 27 30 29 26 23 22 21 21 24 28 30 32 36 41 44 48 52 58 63 64 67 70 73 77 77 75 74 69 66 64 59 56 55 55 54 53
15 16 19 23 25 20 12 14 16 15 18 20 22 23 21 22 22 20 21 22 24 24 25 28 30 31 32 33 32 33 33 33 34 36 36 37 36 35 35 34 33 32 32 32 31 30 29 28 27 28 28 29 29 28 28 27 26 26 25 23 23 24 27 30 30 27 24 22 21 22 25 28 30 32 35 39 44 48 53 58 62 66 70 72 75 77 77 77 76 73 70 66 62 58 56 56 55
19 19 23 24 20 18 15 16 16 15 18 19 22 24 19 20 23 22 23 24 24 25 27 30 31 33 34 34 34 34 35 37 38 38 39 39 38 36 37 37 35 34 34 34 34 34 32 32 32 32 32 32 32 31 30 30 29 27 26 25 25 24 26 28 30 30 29 26 24 25 27 28 29 30 32 35 40 45 51 56 60 64 69 72 74 75 76 76 77 76 75 73 70 66 62 60 58
24 18 21 25 19 21 22 19 18 18 19 18 21 24 21 22 25 24 25 25 25 27 30 33 34 35 36 35 36 37 39 40 40 40 40 40 39 38 39 39 38 38 39 38 38 38 37 37 37 36 36 35 34 33 33 32 32 31 29 27 26 25 27 29 30 30 31 30 28 26 27 29 29 30 32 34 37 42 47 53 59 63 67 71 74 75 77 77 77 76 76 76 76 74 71 66 62
25 19 18 23 22 24 26 23 21 20 20 21 23 26 25 25 26 26 27 28 29 32 35 37 37 38 38 39 40 42 43 44 43 42 42 42 42 42 42 42 43 43 43 43 43 42 42 41 40 39 39 39 37 36 36 35 35 35 34 32 29 27 28 32 33 32 31 31 30 27 26 26 28 30 32 36 38 40 43 47 54 61 66 70 72 74 77 78 78 76 75 76 77 77 75 70 67
21 23 23 25 26 27 29 26 23 21 22 24 26 28 27 26 28 28 30 33 35 37 40 41 41 41 42 43 44 45 45 44 44 43 43 44 45 47 47 47 47 47 47 47 46 46 46 45 44 43 42 41 41 41 41 40 39 39 38 34 30 27 30 34 34 33 32 30 30 29 27 26 26 28 31 34 36 38 40 42 47 55 63 68 71 73 75 77 80 79 77 77 77 77 76 73 69
18 23 24 26 30 31 32 29 23 22 24 24 26 28 27 27 28 30 32 36 39 41 44 44 44 45 45 46 47 46 45 44 44 44 46 48 50 51 51 50 50 50 50 50 50 50 50 50 49 48 47 46 45 45 45 45 44 43 41 36 30 26 27 31 31 31 31 30 29 28 27 27 26 27 28 30 32 33 36 39 43 48 55 63 69 73 75 77 80 81 80 79 79 79 78 77 74
20 23 26 29 32 33 33 29 25 25 25 24 26 27 27 27 29 32 36 39 41 44 46 47 48 49 48 49 48 46 46 46 46 48 50 52 53 53 52 52 52 53 54 54 53 53 53 52 51 51 51 50 48 48 48 48 47 44 42 38 35 31 28 28 29 29 28 27 27 25 25 26 27 27 28 29 30 30 32 35 40 43 47 53 60 68 74 78 80 81 82 81 80 80 80 80 79
23 26 29 31 31 30 28 27 27 28 28 26 27 29 30 31 31 36 40 41 43 47 50 51 51 50 49 49 49 48 49 50 51 52 54 54 55 55 55 56 56 56 56 55 54 54 53 53 52 51 51 51 50 48 46 45 44 43 41 41 39 36 32 29 28 27 26 25 24 23 23 25 26 27 27 29 31 30 30 31 35 40 44 46 50 58 66 74 79 81 83 84 84 83 81 80 81
25 27 28 27 28 26 24 26 28 30 31 29 28 31 34 35 37 41 42 41 45 49 52 52 52 50 49 50 50 52 53 55 55 56 56 58 58 58 59 60 59 57 56 55 56 55 53 51 50 48 47 48 47 44 43 42 42 43 42 41 38 35 33 31 30 28 27 26 24 24 24 25 25 27 28 29 31 32 30 29 31 36 43 47 50 52 55 64 74 80 82 84 87 89 86 82 81
25 28 29 28 28 26 25 27 30 33 33 30 30 34 38 40 42 44 43 44 47 48 49 50 51 50 50 52 55 56 57 59 59 60 61 61 62 64 64 63 59 57 55 54 53 51 50 48 47 47 46 44 43 41 41 41 43 43 43 41 39 37 36 36 35 32 31 30 28 28 28 26 27 29 31 31 31 32 32 31 29 32 38 45 48 49 49 53 63 74 80 83 85 90 93 91 88
27 29 30 30 31 31 29 28 30 33 34 34 34 36 42 45 45 46 45 46 47 47 48 49 50 52 54 56 58 60 61 62 63 63 65 67 69 69 68 63 59 56 55 53 52 51 50 49 47 46 43 41 40 41 40 41 42 42 43 43 42 42 40 39 40 40 40 39 36 34 34 33 31 32 35 38 36 34 35 34 32 33 35 40 43 45 45 47 53 62 72 79 82 85 90 93 95
29 31 30 31 34 35 34 33 33 33 37 40 37 37 44 47 48 50 47 46 47 47 49 51 53 55 59 61 62 64 65 66 68 68 69 70 70 68 65 61 59 58 56 54 53 51 49 47 44 41 41 43 44 43 42 41 40 39 39 39 38 39 40 41 44 46 46 46 46 45 45 44 41 37 38 42 41 38 38 37 35 35 35 37 39 41 41 42 45 52 61 70 77 81 83 86 92
31 35 34 34 38 37 35 37 38 37 38 42 40 41 46 45 48 51 49 49 50 51 53 55 57 59 62 65 67 69 70 69 70 70 69 68 66 64 62 61 60 58 55 51 47 46 45 43 41 42 44 45 44 41 40 40 39 40 41 42 42 42 43 43 46 49 47 48 50 50 49 47 45 42 40 42 42 41 41 40 39 37 35 35 37 38 39 39 40 43 50 59 69 76 80 81 86
31 35 36 38 40 38 36 37 41 42 41 43 44 43 44 43 47 51 49 52 54 55 58 58 60 63 65 68 69 69 69 68 68 67 66 65 64 64 64 63 61 56 52 48 47 45 40 37 37 40 41 40 39 39 41 43 45 47 50 53 54 54 52 49 49 50 49 49 50 49 48 47 46 44 42 41 41 41 41 41 42 39 36 36 36 37 38 39 40 40 44 52 60 69 77 80 83
31 33 36 40 38 35 37 38 43 45 42 46 50 46 42 42 47 52 51 56 60 61 61 61 63 66 67 68 67 65 64 63 63 63 63 64 65 66 66 64 59 54 50 46 43 39 35 34 37 39 40 42 44 47 49 50 52 54 56 59 62 63 61 56 54 54 51 48 49 49 50 51 50 48 46 44 43 43 41 40 42 42 39 38 38 39 38 40 43 43 45 51 57 64 74 79 81
32 35 37 39 37 36 39 39 43 44 41 48 51 47 48 44 46 56 58 61 67 66 64 64 65 66 65 64 63 62 63 63 64 66 66 67 67 66 64 60 56 52 45 36 32 32 34 38 42 45 47 51 55 57 57 56 56 57 58 62 64 65 65 62 60 58 54 49 47 48 51 52 53 53 53 52 51 50 48 44 42 43 42 42 41 41 41 41 43 45 48 54 58 62 72 79 77
33 36 36 36 37 37 38 38 41 41 42 49 47 46 53 50 49 63 70 70 71 68 67 66 63 62 62 61 62 63 64 66 69 69 69 69 67 64 61 57 53 43 33 28 29 34 38 42 48 51 54 57 61 62 60 58 58 59 62 67 69 71 70 66 63 61 56 51 47 47 49 51 53 55 56 56 54 52 52 50 48 47 46 47 45 43 41 40 42 43 45 52 61 65 72 80 81
32 36 35 32 34 36 36 38 40 41 46 52 46 43 52 56 57 66 72 72 70 68 68 66 63 63 63 64 65 65 66 69 70 68 67 65 62 60 56 49 39 29 27 29 33 37 41 48 53 54 55 58 61 60 59 58 59 63 69 73 75 75 74 71 68 65 63 59 55 52 52 52 53 54 54 54 52 51 52 54 54 53 52 51 46 42 40 39 42 44 43 47 57 67 73 77 81
35 39 38 33 33 34 34 38 42 45 49 50 44 42 48 57 62 64 66 67 68 69 68 65 64 64 64 64 65 66 67 67 68 68 66 62 56 48 40 33 28 28 31 33 35 39 43 47 50 50 51 52 54 55 56 58 65 73 76 77 77 76 78 80 78 75 74 70 65 60 58 56 56 55 54 53 51 52 55 56 57 57 57 55 50 45 42 40 43 46 45 45 51 63 72 75 77
38 40 42 42 43 43 41 43 48 49 46 45 44 46 49 53 59 64 64 66 67 67 66 64 65 65 64 66 66 64 65 66 68 66 58 51 43 32 28 32 36 37 35 33 34 37 39 40 42 45 47 48 49 53 58 65 75 82 83 82 83 82 85 87 85 82 80 77 72 67 65 64 64 64 62 59 54 56 59 60 60 61 61 60 56 52 47 44 46 48 47 46 48 54 66 73 75
40 43 47 50 54 58 57 57 61 58 49 45 47 53 57 54 58 66 66 65 66 64 64 66 65 66 68 68 67 67 68 67 61 51 42 36 29 26 33 41 42 38 34 32 31 31 33 38 41 44 46 49 54 59 65 72 80 85 88 90 88 86 86 86 85 82 79 78 74 73 74 74 74 73 71 66 62 63 65 62 60 61 62 61 59 57 54 51 52 54 53 49 46 47 55 68 76
44 48 52 52 54 62 66 67 71 66 56 52 52 59 65 59 59 65 67 66 66 65 68 70 70 70 70 69 70 70 64 54 45 38 34 28 23 29 38 40 37 33 31 31 30 29 33 40 44 44 46 51 59 65 66 73 83 89 91 91 88 85 82 80 80 80 78 76 75 78 81 81 80 78 73 67 65 67 67 63 62 66 67 66 63 61 61 59 59 59 58 55 50 46 48 59 71
47 50 54 54 52 56 62 65 66 68 70 67 63 64 63 60 62 65 66 65 67 71 73 72 72 70 69 71 69 61 50 41 38 35 29 23 24 32 36 34 32 31 30 32 30 29 35 42 44 45 47 53 61 67 67 73 84 90 90 90 87 84 79 75 75 77 77 76 78 84 86 85 83 79 73 70 69 70 70 67 68 72 73 73 72 70 69 69 67 65 63 60 55 50 48 53 62
50 53 52 50 49 54 64 67 63 70 81 73 64 65 62 62 67 64 61 64 67 73 74 71 71 71 71 69 59 48 42 39 36 31 25 23 27 33 34 33 32 31 32 34 32 31 36 42 45 46 49 52 59 67 72 76 81 84 85 86 84 82 78 74 72 74 76 77 81 86 87 86 84 78 76 79 77 76 75 74 74 74 75 77 79 80 79 75 72 69 66 62 59 56 54 53 56
52 56 52 48 53 59 68 76 74 80 88 74 61 66 66 68 72 65 61 66 70 73 72 70 72 73 68 59 48 44 42 39 34 29 26 28 32 36 37 37 37 38 40 38 35 35 39 43 46 49 52 53 56 64 72 77 79 79 78 77 77 76 74 72 71 73 74 76 80 84 86 86 82 78 81 86 85 82 79 80 80 76 75 78 82 86 85 82 79 75 70 65 62 62 62 60 57
50 54 52 53 63 68 71 80 85 90 94 83 67 65 69 74 76 72 70 72 75 76 74 74 73 68 58 50 46 45 41 36 34 32 32 35 38 40 40 41 43 45 46 43 39 40 42 45 49 53 55 58 62 65 67 71 74 75 73 71 69 68 68 68 69 70 70 73 79 83 84 83 81 83 88 89 88 87 83 82 83 79 77 78 81 85 87 86 83 79 74 70 66 65 65 64 64
50 51 53 59 66 70 72 76 83 90 94 91 81 73 75 78 76 75 77 78 78 77 76 75 69 58 51 48 46 41 36 35 36 36 38 41 42 42 42 45 47 49 49 47 44 45 45 46 51 55 59 65 71 73 69 66 66 68 69 68 66 66 66 66 65 68 70 74 78 79 79 82 85 89 92 91 90 90 86 85 85 83 81 81 81 84 87 87 85 81 78 75 72 69 67 65 65
54 55 59 65 67 69 72 73 75 84 90 94 92 82 76 76 75 76 79 77 76 76 74 69 59 50 48 46 42 37 35 36 38 39 42 44 45 44 45 48 50 50 51 50 49 49 47 48 52 58 65 72 76 76 74 70 67 67 67 67 67 65 62 60 62 66 69 70 73 74 77 82 87 90 92 92 91 91 89 87 87 86 84 84 86 87 88 88 85 82 80 78 77 76 71 66 65
56 57 59 65 70 72 78 78 72 74 81 86 91 88 79 75 74 74 76 75 73 70 65 58 51 47 45 41 37 36 37 38 38 40 44 46 47 46 47 49 51 52 52 52 52 51 49 52 59 66 73 78 77 77 78 77 74 71 68 65 64 62 60 59 61 64 66 67 70 74 77 80 85 90 91 91 91 92 91 90 89 89 88 87 88 90 92 91 87 83 80 79 79 79 74 69 67